Location: Beadle
(51.4667°N, 109.0000°W)
Time: 19:05:54
(UTC+00:00)

O/OREOS (USA 219) - Pass Details

Date: 25 June 2022
Orbit: 621 x 646 km, 72.0° (Epoch: 22 May)

Event Time Altitude Azimuth Distance (km) Brightness Sun altitude
Rises 06:38:36 0° 337° (NNW) 2,957 ? -14.6°
Reaches altitude 10° 06:41:51 10° 1° (N) 2,049 ? -14.7°
Maximum altitude 06:44:29 15° 36° (NE) 1,744 ? -14.8°
Drops below altitude 10° 06:47:07 10° 72° (ENE) 2,049 ? -14.8°
Sets 06:50:21 0° 96° (E) 2,958 ? -14.9°
